STARLINK-3322 (50838 NORAD) Tracking and Keplerian Element Data

This shows tracking and keplerian element data for the satellite.

Feedback or suggestion? Click here.




ElementValue
Catalog50838
NameSTARLINK-3322
Epoch Orbit2175
Epoch Day140.58334491
Epoch Year2022
RAAN295.0585
Inclination53.2168
Eccentricity0.0002068
Argument of Perigee31.5557
Mean Anonmoly139.928
Mean Motion15.08876232
Decay Rate-0.00059394
L11 50838U 22001AM 22140.58334491 -.00059394 00000+0 -37409-2 0 9991
L22 50838 53.2168 295.0585 0002068 31.5557 139.9280 15.08876232 21756

Live tracking and technical data element details for STARLINK-3322 (NORAD 50838). STARLINK-3322 can be tracked NOW for your location showing map with azimuth and elevation plus other details from your city location.

Track the satellite on the map from your city or location and see movement details for azimuth, elevation, latitude, longitude, range, height, and movement on the map or in text.







IsCatalogInMostPopularTable: catalog: 50838, numindb: 22
Update: records affected: 1



GetName: 50838 STARLINK-3322

Hit Count: updated at: Sun, 22 May 2022 04:58:56 GMT